Time,TemperatureF,DewpointF,PressureIn,WindDirection,WindDirectionDegrees,WindSpeedMPH,WindSpeedGustMPH,Humidity,HourlyPrecipIn,Conditions,Clouds,dailyrainin,SoftwareType,DateUTC
2013-02-26 00:00:00,69.4,67.3,29.73,East,90,0.0,0.0,93,0.00,,,0.00,Wunderground v.1.15,2013-02-26 05:00:00,
2013-02-26 00:05:00,69.3,67.2,29.73,East,90,0.0,0.0,93,0.00,,,0.00,Wunderground v.1.15,2013-02-26 05:05:00,
2013-02-26 00:10:00,69.3,67.2,29.73,East,90,0.0,0.0,93,0.00,,,0.00,Wunderground v.1.15,2013-02-26 05:10:00,
2013-02-26 00:15:00,69.3,67.2,29.73,East,90,0.0,0.0,93,0.00,,,0.00,Wunderground v.1.15,2013-02-26 05:15:00,
2013-02-26 00:20:00,69.3,67.2,29.73,East,90,0.0,0.0,93,0.00,,,0.00,Wunderground v.1.15,2013-02-26 05:20:00,
2013-02-26 00:25:00,69.1,67.0,29.73,East,90,0.0,0.0,93,0.00,,,0.00,Wunderground v.1.15,2013-02-26 05:25:00,
2013-02-26 00:35:00,69.1,67.3,29.72,East,90,0.0,0.0,94,0.00,,,0.00,Wunderground v.1.15,2013-02-26 05:35:00,
2013-02-26 00:45:00,68.9,67.1,29.72,East,90,0.0,0.0,94,0.00,,,0.00,Wunderground v.1.15,2013-02-26 05:45:00,
2013-02-26 00:55:00,68.8,67.0,29.72,East,90,0.0,0.0,94,0.00,,,0.00,Wunderground v.1.15,2013-02-26 05:55:00,
2013-02-26 01:05:00,68.8,67.0,29.72,East,90,0.0,0.0,94,0.00,,,0.00,Wunderground v.1.15,2013-02-26 06:05:00,
2013-02-26 01:15:00,68.6,67.1,29.72,East,90,0.0,0.0,95,0.00,,,0.00,Wunderground v.1.15,2013-02-26 06:15:00,
2013-02-26 01:25:00,68.3,66.8,29.72,East,90,0.0,0.0,95,0.00,,,0.00,Wunderground v.1.15,2013-02-26 06:25:00,
2013-02-26 01:30:00,68.3,66.8,29.72,East,90,0.0,0.0,95,0.00,,,0.00,Wunderground v.1.15,2013-02-26 06:30:00,
2013-02-26 01:40:00,67.9,66.4,29.72,East,90,0.0,0.0,95,0.00,,,0.00,Wunderground v.1.15,2013-02-26 06:40:00,
2013-02-26 01:50:00,67.6,66.1,29.70,East,90,0.0,0.0,95,0.00,,,0.00,Wunderground v.1.15,2013-02-26 06:50:00,
2013-02-26 01:55:00,67.4,65.9,29.70,East,90,0.0,0.0,95,0.00,,,0.00,Wunderground v.1.15,2013-02-26 06:55:00,
2013-02-26 02:05:00,67.4,65.9,29.69,East,90,0.0,0.0,95,0.00,,,0.00,Wunderground v.1.15,2013-02-26 07:05:00,
2013-02-26 02:15:00,67.4,66.2,29.69,East,90,0.0,0.0,96,0.00,,,0.00,Wunderground v.1.15,2013-02-26 07:15:00,
2013-02-26 02:20:00,67.3,66.1,29.69,East,90,0.0,0.0,96,0.00,,,0.00,Wunderground v.1.15,2013-02-26 07:20:00,
2013-02-26 02:30:00,67.1,65.9,29.69,East,90,0.0,0.0,96,0.00,,,0.00,Wunderground v.1.15,2013-02-26 07:30:00,
2013-02-26 02:35:00,67.1,65.9,29.69,East,90,0.0,0.0,96,0.00,,,0.00,Wunderground v.1.15,2013-02-26 07:35:00,
2013-02-26 02:40:00,67.1,65.9,29.69,East,90,0.0,0.0,96,0.00,,,0.00,Wunderground v.1.15,2013-02-26 07:40:00,
2013-02-26 02:50:00,67.1,65.9,29.69,East,90,0.0,0.0,96,0.00,,,0.00,Wunderground v.1.15,2013-02-26 07:50:00,
2013-02-26 03:00:00,66.8,65.6,29.68,East,90,0.0,0.0,96,0.00,,,0.00,Wunderground v.1.15,2013-02-26 08:00:00,
2013-02-26 03:05:00,66.8,65.6,29.68,East,90,0.0,0.0,96,0.00,,,0.00,Wunderground v.1.15,2013-02-26 08:05:00,
2013-02-26 03:15:00,66.9,65.7,29.67,East,90,0.0,0.0,96,0.00,,,0.00,Wunderground v.1.15,2013-02-26 08:15:00,
2013-02-26 03:25:00,66.9,65.7,29.67,ESE,116,0.0,0.0,96,0.00,,,0.00,Wunderground v.1.15,2013-02-26 08:25:00,
2013-02-26 03:30:00,66.9,65.7,29.66,ESE,116,0.0,0.0,96,0.00,,,0.00,Wunderground v.1.15,2013-02-26 08:30:00,
2013-02-26 03:40:00,66.9,65.7,29.66,ESE,116,0.0,0.0,96,0.00,,,0.00,Wunderground v.1.15,2013-02-26 08:40:00,
2013-02-26 03:50:00,67.1,65.9,29.64,ESE,116,0.0,0.0,96,0.00,,,0.00,Wunderground v.1.15,2013-02-26 08:50:00,
2013-02-26 04:00:00,67.3,66.1,29.66,ESE,116,0.0,0.0,96,0.00,,,0.00,Wunderground v.1.15,2013-02-26 09:00:00,
2013-02-26 04:05:00,67.3,66.1,29.66,ESE,116,0.0,0.0,96,0.00,,,0.00,Wunderground v.1.15,2013-02-26 09:05:00,
2013-02-26 04:15:00,67.4,66.2,29.66,ESE,116,0.0,0.0,96,0.00,,,0.00,Wunderground v.1.15,2013-02-26 09:15:00,
2013-02-26 04:20:00,67.4,66.2,29.66,ESE,116,0.0,0.0,96,0.00,,,0.00,Wunderground v.1.15,2013-02-26 09:20:00,
2013-02-26 04:30:00,67.9,66.7,29.66,ESE,116,0.0,0.0,96,0.00,,,0.00,Wunderground v.1.15,2013-02-26 09:30:00,
2013-02-26 04:40:00,68.3,67.1,29.66,ENE,65,0.0,0.0,96,0.00,,,0.00,Wunderground v.1.15,2013-02-26 09:40:00,
2013-02-26 04:45:00,68.4,67.2,29.67,East,90,0.0,0.0,96,0.00,,,0.00,Wunderground v.1.15,2013-02-26 09:45:00,
2013-02-26 04:50:00,68.4,66.9,29.67,East,90,0.0,0.0,95,0.00,,,0.00,Wunderground v.1.15,2013-02-26 09:50:00,
2013-02-26 05:00:00,68.8,67.0,29.66,East,90,0.0,0.0,94,0.00,,,0.00,Wunderground v.1.15,2013-02-26 10:00:00,
2013-02-26 05:05:00,69.1,67.3,29.66,ENE,59,0.0,0.0,94,0.00,,,0.00,Wunderground v.1.15,2013-02-26 10:05:00,
2013-02-26 05:15:00,69.3,66.9,29.66,East,98,0.0,0.0,92,0.00,,,0.00,Wunderground v.1.15,2013-02-26 10:15:00,
2013-02-26 05:20:00,69.4,66.7,29.66,East,98,0.0,0.0,91,0.00,,,0.00,Wunderground v.1.15,2013-02-26 10:20:00,
2013-02-26 05:25:00,69.6,66.9,29.66,East,98,0.0,0.0,91,0.00,,,0.00,Wunderground v.1.15,2013-02-26 10:25:00,
2013-02-26 05:35:00,69.8,66.7,29.66,SSW,213,0.0,1.0,90,0.00,,,0.00,Wunderground v.1.15,2013-02-26 10:35:00,
2013-02-26 05:45:00,70.1,66.4,29.64,ESE,123,0.0,0.0,88,0.00,,,0.00,Wunderground v.1.15,2013-02-26 10:45:00,
2013-02-26 05:50:00,70.3,66.2,29.64,ESE,123,0.0,0.0,87,0.00,,,0.00,Wunderground v.1.15,2013-02-26 10:50:00,
2013-02-26 06:00:00,70.4,66.0,29.67,SSW,205,0.0,0.0,86,0.00,,,0.00,Wunderground v.1.15,2013-02-26 11:00:00,
2013-02-26 06:05:00,70.4,66.0,29.67,SSW,205,0.0,1.0,86,0.00,,,0.00,Wunderground v.1.15,2013-02-26 11:05:00,
2013-02-26 06:15:00,70.6,65.9,29.67,West,277,0.0,0.0,85,0.00,,,0.00,Wunderground v.1.15,2013-02-26 11:15:00,
2013-02-26 22:25:00,63.4,59.5,29.79,WNW,287,0.0,0.0,87,0.00,,,0.43,Wunderground v.1.15,2013-02-27 03:25:00,
2013-02-26 22:35:00,63.4,59.1,29.80,NW,320,0.0,0.0,86,0.00,,,0.43,Wunderground v.1.15,2013-02-27 03:35:00,
2013-02-26 22:40:00,63.4,59.1,29.80,NW,306,0.0,0.0,86,0.00,,,0.43,Wunderground v.1.15,2013-02-27 03:40:00,
2013-02-26 22:50:00,63.2,58.9,29.80,WNW,289,0.0,0.0,86,0.00,,,0.43,Wunderground v.1.15,2013-02-27 03:50:00,
2013-02-26 23:00:00,63.2,58.9,29.80,West,265,0.0,0.0,86,0.00,,,0.43,Wunderground v.1.15,2013-02-27 04:00:00,
2013-02-26 23:05:00,63.2,58.9,29.80,West,265,0.0,0.0,86,0.00,,,0.43,Wunderground v.1.15,2013-02-27 04:05:00,
2013-02-26 23:15:00,63.2,58.9,29.80,NW,304,0.0,0.0,86,0.00,,,0.43,Wunderground v.1.15,2013-02-27 04:15:00,
2013-02-26 23:25:00,63.2,58.9,29.80,NW,304,0.0,0.0,86,0.00,,,0.43,Wunderground v.1.15,2013-02-27 04:25:00,
2013-02-26 23:35:00,63.2,58.6,29.80,WSW,258,0.0,0.0,85,0.00,,,0.43,Wunderground v.1.15,2013-02-27 04:35:00,
2013-02-26 23:45:00,63.1,58.5,29.80,West,264,0.0,0.0,85,0.00,,,0.43,Wunderground v.1.15,2013-02-27 04:45:00,
2013-02-26 23:55:00,63.1,58.5,29.80,West,259,0.0,0.0,85,0.00,,,0.43,Wunderground v.1.15,2013-02-27 04:55:00,